CW9809 Weather Reports


time (UTC)temp
C
wind
direction
speed
KPH
gust
KPH
rain 1hr
cm
rain 24hr
cm
rain mn
cm
humidity
%
barometer
mb
20260902133021 16 109 0.0 0.0 0.00 2.13 0.03 95 1022.2
20260902131524 16 74 0.0 0.0 0.00 2.24 0.03 95 1022.0
20260902130026 16 74 0.0 0.0 0.00 2.24 0.03 95 1021.9
20260902124528 16 79 0.0 0.0 0.00 2.24 0.03 95 1021.8
20260902123038 16 74 0.0 0.0 0.00 2.24 0.03 96 1021.8
20260902121518 16 71 0.0 0.0 0.00 2.26 0.03 95 1022.1
20260902120023 16 71 0.0 0.0 0.00 2.26 0.03 95 1022.1
20260902114535 15 71 0.0 0.0 0.00 2.26 0.03 96 1022.3
20260902113041 15 37 0.0 0.0 0.00 2.26 0.03 96 1022.2
20260902111516 15 37 0.0 0.0 0.00 2.26 0.03 96 1022.2
20260902110008 15 38 0.0 0.0 0.00 2.26 0.03 95 1022.2
20260902104509 15 38 0.0 0.0 0.00 2.26 0.03 95 1022.2
20260902103015 15 38 0.0 0.0 0.00 2.26 0.03 95 1021.8
20260902101513 15 37 0.0 0.0 0.00 2.26 0.03 96 1021.8
20260902100013 15 37 0.0 0.0 0.00 2.26 0.03 96 1021.7
20260902094508 15 38 0.0 0.0 0.00 2.26 0.03 95 1021.7
20260902093012 15 38 0.0 0.0 0.00 2.26 0.03 96 1021.4
20260902091505 15 38 0.0 0.0 0.00 2.26 0.03 96 1021.1
20260902090010 15 37 0.0 0.0 0.00 2.26 0.03 96 1020.8
20260902084517 15 37 0.0 0.0 0.00 2.26 0.03 96 1020.9
20260902083014 15 38 0.0 0.0 0.00 2.31 0.03 96 1020.9
20260902081516 15 38 0.0 0.0 0.00 2.34 0.03 96 1020.8
20260902080011 15 38 0.0 0.0 0.00 2.34 0.03 96 1020.7
20260902074511 15 38 0.0 0.0 0.00 2.34 0.03 96 1020.6
20260902073014 15 37 0.0 0.0 0.00 2.36 0.03 95 1020.6
20260902071514 15 38 0.0 0.0 0.00 2.36 0.03 95 1020.4
20260902070015 15 38 0.0 0.0 0.00 2.36 0.03 95 1020.6
20260902064509 16 38 0.0 0.0 0.00 2.36 0.03 95 1020.5
20260902063015 16 38 0.0 0.0 0.00 2.36 0.03 95 1020.6
20260902061516 16 37 0.0 0.0 0.00 2.36 0.03 95 1020.4
20260902060021 16 38 0.0 0.0 0.00 2.36 0.03 96 1020.4
20260902054515 16 37 0.0 0.0 0.03 2.36 0.03 96 1020.5
20260902053014 16 37 0.0 0.0 0.03 2.36 0.03 96 1020.6
20260902051518 16 36 0.0 0.0 0.03 2.36 0.03 96 1020.6
20260902050021 16 36 0.0 0.0 0.03 2.36 0.03 96 1020.3
20260902044520 16 36 0.0 0.0 0.00 2.34 0.00 95 1020.2
20260902043022 16 36 0.0 0.0 0.00 2.34 0.00 95 1020.2
20260902041524 16 33 0.0 0.0 0.00 2.34 0.00 95 1020.2
20260902040024 16 26 0.0 0.0 0.00 2.34 0.00 95 1020.2
20260902034526 16 21 0.0 0.0 0.00 2.34 2.34 95 1020.0
20260902033026 16 13 0.0 0.0 0.00 2.34 2.34 95 1019.9
20260902031524 16 34 0.0 0.0 0.00 2.34 2.34 95 1019.9
20260902030026 16 34 0.0 0.0 0.00 2.34 2.34 95 1019.8
20260902024522 16 34 0.0 0.0 0.00 2.34 2.34 95 1019.5
20260902023037 16 34 0.0 0.0 0.00 2.34 2.34 95 1019.5
20260902021523 16 34 0.0 0.0 0.00 2.34 2.34 95 1019.5
20260902020028 16 34 0.0 0.0 0.00 2.34 2.34 95 1019.5
20260902014539 16 42 0.0 0.0 0.00 2.34 2.34 95 1019.4
20260902013026 16 42 0.0 0.0 0.00 2.34 2.34 95 1019.2
20260902011540 16 41 0.0 0.0 0.00 2.34 2.34 95 1019.1
20260902010027 16 37 0.0 0.0 0.00 2.34 2.34 95 1019.0
20260902004531 16 37 0.0 0.0 0.00 2.34 2.34 95 1018.9
20260902003031 16 51 0.0 0.0 0.00 2.34 2.34 95 1018.8
20260902001527 16 50 0.0 0.0 0.00 2.34 2.34 94 1018.5
20260902000033 16 37 0.0 0.0 0.00 2.34 2.34 94 1018.3
20260901234532 16 35 0.0 0.0 0.00 2.34 2.34 94 1018.5
20260901233030 16 23 0.0 0.0 0.03 2.34 2.34 94 1018.3
20260901231530 16 213 0.0 0.0 0.03 2.34 2.34 94 1018.4
20260901230027 16 117 0.0 0.0 0.15 2.34 2.34 94 1018.2
20260901224531 16 246 0.0 0.0 1.37 2.34 2.34 94 1018.1
20260901223029 17 80 0.0 0.0 1.52 2.31 2.31 94 1018.1
20260901221536 17 78 0.0 0.0 1.60 2.31 2.31 94 1017.9
20260901220030 17 62 0.0 0.0 1.63 2.18 2.18 93 1017.9
20260901214540 18 345 0.0 0.0 0.53 0.97 0.97 93 1018.0
20260901213006 18 81 0.0 0.0 0.46 0.79 0.79 93 1017.2
20260901211512 19 32 0.0 0.0 0.38 0.71 0.71 93 1017.1
20260901210018 20 27 0.0 0.0 0.23 0.56 0.56 93 1017.0
20260901204532 21 38 0.0 0.0 0.10 0.43 0.43 91 1016.6
20260901203031 22 209 0.0 0.0 0.00 0.33 0.33 92 1016.5
20260901201533 22 209 0.0 0.0 0.00 0.33 0.33 92 1016.3
20260901200016 22 209 0.0 0.0 0.00 0.33 0.33 92 1016.3
20260901194519 22 209 0.0 0.0 0.00 0.33 0.33 93 1016.3
20260901193026 22 209 0.0 0.0 0.00 0.33 0.33 93 1016.3
20260901191539 22 209 0.0 0.0 0.00 0.33 0.33 94 1016.2
20260901190036 22 209 0.0 0.0 0.00 0.33 0.33 94 1016.2
20260901184516 22 209 0.0 0.0 0.00 0.33 0.33 94 1016.3
20260901183036 22 209 0.0 0.0 0.00 0.33 0.33 95 1016.3
20260901181530 22 209 0.0 0.0 0.00 0.33 0.33 95 1016.4
20260901180030 22 209 0.0 0.0 0.00 0.33 0.33 95 1016.4
20260901174533 22 209 0.0 0.0 0.00 0.33 0.33 95 1016.5
20260901173026 22 209 0.0 0.0 0.00 0.33 0.33 95 1016.5
20260901171525 21 209 0.0 0.0 0.00 0.33 0.33 96 1016.4
20260901170029 21 209 0.0 0.0 0.00 0.33 0.33 95 1016.3
20260901164531 21 209 0.0 0.0 0.00 0.33 0.33 95 1016.5
20260901163034 21 209 0.0 0.0 0.00 0.33 0.33 95 1016.6
20260901161518 21 209 0.0 0.0 0.00 0.33 0.33 95 1016.8
20260901160033 21 209 0.0 0.0 0.00 0.33 0.33 95 1016.8
20260901154540 21 209 0.0 0.0 0.00 0.33 0.33 96 1017.0
20260901153042 21 209 0.0 0.0 0.00 0.33 0.33 96 1017.1
20260901151533 21 209 0.0 0.0 0.03 0.33 0.33 96 1017.1
20260901150024 21 209 0.0 0.0 0.05 0.33 0.33 95 1017.1
20260901144534 20 209 0.0 0.0 0.08 0.33 0.33 95 1017.2
20260901143036 20 209 0.0 0.0 0.10 0.33 0.33 96 1017.5
20260901141532 20 209 0.0 0.0 0.18 0.30 0.30 95 1017.6
20260901140039 20 209 0.0 0.0 0.15 0.28 0.28 95 1017.6
20260901134526 20 209 0.0 0.0 0.13 0.25 0.25 95 1017.6